LFBPLFMP

Guest
Details From LFBP - Pau Pyrenees
To LFMP - Rivesaltes
Flight Number -
Tags generated
Created
Modified
Stats Distance 150 nm / 277 km
Max Altitude 9,400 ft / 2,865 m
Waypoints 3
Social Downloads 0
Likes 0
Share VATSIM

Download

Looking for another format? Having issues loading an existing format? Contact us
Advertisement - Login to hide

Notes

Basic altitude profile: - Ascent Rate: 2500ft/min - Ascent Speed: 250kts - Cruise Altitude: 10000ft - Cruise Speed: 420kts - Descent Rate: 1500ft/min - Descent Speed: 250kts

Route

LFBP GAI57 LFMP

ID Type Via Altitude Latitude Longitude Leg Dist Tot Dist Heading (true) Name
O LFBP APT - 0 ft / 0 m 43.38108˚ -0.42075˚ - 0 nm - Pau Pyrenees
GAI57 FIX - 9,400 ft / 2,865 m 43.00000˚ 1.93611˚ 105 nm 105 nm 102° / 103° -
O LFMP APT - 0 ft / 0 m 42.74049˚ 2.87059˚ 43 nm 149 nm 110° / 111° Rivesaltes

Altitude Profile

Advertisement - Login to hide

LFBP

Details ICAO LFBP (PUF)
Name Pau Pyrenees
Region France
Timezone Europe/Paris (UTC+1.0)
Stats Elevation 616 ft / 188 m (AMSL)
Location 43.381078° -0.420752°
Runways 1
Magnetic Variation 0.094° E

METAR

LFBP 131500Z AUTO 24007KT 9999 BKN080 OVC100 13/05 Q1016 NOSIG

Decode

TAF

TAF LFBP 131100Z 1312/1412 24008KT 9999 BKN025 BKN065 TEMPO 1318/1409 3000 -RA BKN015

Decode

Departure Runways

ID Width Length Bearing (true) Bearing (mag) Surface Threshold Offset Overrun Length
13 148 ft / 45 m 8,191 ft / 2,497 m 125.89° 125.80° Asphalt 0 ft / 0 m 0 ft / 0 m
31 148 ft / 45 m 8,191 ft / 2,497 m 305.90° 305.81° Asphalt 0 ft / 0 m 0 ft / 0 m

LFMP

Details ICAO LFMP (PGF)
Name Rivesaltes
Region France
Timezone Europe/Paris (UTC+1.0)
Stats Elevation 143 ft / 44 m (AMSL)
Location 42.740488° 2.870594°
Runways 2
Magnetic Variation 0.990° E

METAR

LFMP 131500Z AUTO VRB02KT 9999 FEW064 SCT160 BKN180 13/M01 Q1018 TEMPO RA BKN010

Decode

TAF

TAF LFMP 131400Z 1315/1415 VRB03KT CAVOK TEMPO 1315/1409 RA BKN010 BECMG 1401/1403 28020G30KT BECMG 1408/1410 27010KT

Decode

Destination Runways

ID Width Length Bearing (true) Bearing (mag) Surface Threshold Offset Overrun Length
13 66 ft / 20 m 4,231 ft / 1,290 m 127.54° 126.55° Asphalt 492 ft / 150 m 0 ft / 0 m
15 148 ft / 45 m 8,189 ft / 2,496 m 148.38° 147.39° Asphalt 0 ft / 0 m 230 ft / 70 m
31 66 ft / 20 m 4,231 ft / 1,290 m 307.55° 306.56° Asphalt 1,148 ft / 350 m 0 ft / 0 m
33 148 ft / 45 m 8,189 ft / 2,496 m 328.39° 327.40° Asphalt 558 ft / 170 m 230 ft / 70 m

Approach Navaids

Runway Type Ident Frequency Range Bearing (true) Bearing (mag) Slope Elevation
33 Localiser PL 111.75 MHz 18 nm / 33 km 328.30° 327.31° - 124 ft / 38 m (AMSL)
33 Glidescope PL 111.75 MHz 10 nm / 19 km 328.38° 327.40° 3.00° 124 ft / 38 m (AMSL)
33 DME PL 111.75 MHz 18 nm / 33 km - - - 183 ft / 56 m (AMSL)

Popular Alternatives